User: anonymous
Location: Caltech
(34.1382°N, 118.1253°W)
Time: 12:17:18
(UTC-07:00)
Language:

OAO 1 Rocket - Orbit

View from above orbital plane
View from above orbital plane
View from above satellite
View from above satellite

Ground track
Ground track

The orbit data is extracted from the following two-line orbital elements,

1 02144U 66031B   14113.37087397  .00000543  00000-0  16886-3 0  6082
2 02144 035.0428 092.3757 0007943 006.6364 353.4430 14.42086113521859
Epoch (UTC): 23 April 2014 08:54:03
Eccentricity: 0.0007943
inclination: 35.0428°
perigee height: 746 km
apogee height: 757 km
right ascension of ascending node: 92.3757°
argument of perigee: 6.6364°
revolutions per day: 14.42086113
mean anomaly at epoch: 353.4430°
orbit number at epoch: 52185

The dashed part of the orbit path shows where the satellite is in the earth's shadow,  

DLR